Tracking 18843 objects as of 20-November-2017
HD Live streaming from Space Station
objects crossing your sky now

FENGYUN 1C DEB

Track FENGYUN 1C DEB now!
10-day predictions


NORAD ID: 30048
Int'l Code: 1999-025NZ
Perigee: 838.0 km
Apogee: 1,116.2 km
Inclination: 98.7 °
Period: 104.5 minutes
Semi major axis: 7348 km
RCS: 0.0161 m2 (small)
Launch date: May 10, 1999
Source: People's Republic of China (PRC)
Launch site: Taiyaun Space Center, China (TSC)

Note: This is SATELLITE DEBRIS
aabbcc
Your satellite tracking list
Your tracking list is empty




NASA's NSSDC Master Catalog

Two Line Element Set (TLE):
1 30048U 99025NZ  17323.15231663  .00000107  00000-0  12806-3 0  9991
2 30048  98.7149  31.9418 0189258 257.8892 155.1594 13.78289035545498
Source of the keplerian elements: AFSPC